Location: Asheville, NC
(35.6000°N, 82.5500°W)
Time: 14:37:03
(UTC-04:00)

Vanguard 2 Rocket - Pass Details

Date: 09 December 2017
Orbit: 553 x 3328 km, 32.9° (Epoch: 20 April)

Event Time Altitude Azimuth Distance (km) Brightness Sun altitude
Rises 00:37:53 0° 276° (W) 6,821 11.3 -76.8°
Enters shadow 00:39:23 - 275° (W) 6,529 11.2 -76.7°
Reaches altitude 10° 00:42:06 10° 275° (W) 6,008 - -76.5°
Maximum altitude 01:02:16 77° 194° (SSW) 3,321 - -74.6°
Exits shadow 01:19:22 11° 112° (ESE) 5,235 10.8 -72.2°
Drops below altitude 10° 01:19:40 10° 112° (ESE) 5,295 10.8 -72.2°
Sets 01:23:06 0° 111° (ESE) 6,015 11.2 -71.7°
